Change the Weather History Date:

Tuesday, July 24, 2012

  Actual Average Record
Temperature  
Mean Temperature 76 °F -  
Max Temperature 84 °F 81 °F 95 °F (1999)
Min Temperature 71 °F 61 °F 55 °F (1998)
Cooling Degree Days 12    
Growing Degree Days 26 (Base 50)    
Moisture  
Dew Point 70 °F    
Average Humidity 85    
Maximum Humidity 94    
Minimum Humidity 66    
Precipitation  
Precipitation 1.64 in - - ()
Sea Level Pressure  
Sea Level Pressure 29.92 in    
Wind  
Wind Speed 5 mph (East)    
Max Wind Speed 16 mph    
Max Gust Speed 23 mph    
Visibility 7 miles    
Events Rain , Thunderstorm    
Averages and records for this station are not official NWS values.
T = Trace of Precipitation, MM = Missing Value Source: NWS Daily Summary

Daily Weather History Graph

Daily Weather History Graph

Search for Another Location

Airport or City:

Trip Planner

Search our weather history database for the weather conditions in past years. The results will help you decide how hot, cold, wet, or windy it might be!

Date:

Astronomy

Jul. 24, 2012 Rise Set
Actual Time 5:51 AM CDT 8:48 PM CDT
Civil Twilight 5:16 AM CDT 9:23 PM CDT
Nautical Twilight 4:32 AM CDT 10:07 PM CDT
Astronomical Twilight 3:40 AM CDT 10:59 PM CDT
Moon 12:08 PM CDT (7/24) 11:16 PM CDT (7/24)
Length of Visible Light 16h 06m
Length of Day
14h 57m
Waxing Crescent, 32% of the Moon is Illuminated
Jul 24
Waxing Crescent
Jul 26
First Quarter
Aug 1
Full
Aug 9
Last Quarter
Aug 17
New

Hourly Weather History & Observations

Time (CDT) Temp. Heat Index Dew Point Humidity Pressure Visibility Wind Dir Wind Speed Gust Speed Precip Events Conditions
12:44 AM 75.2 °F - 64.4 °F 69% 29.97 in 10.0 mi Calm Calm - 0.01 in Rain , Thunderstorm Light Rain
12:53 AM 75.0 °F - 66.9 °F 76% 29.95 in 10.0 mi Calm Calm - 0.01 in Rain , Thunderstorm Light Rain
1:23 AM 73.4 °F - 69.8 °F 88% 29.95 in 10.0 mi Calm Calm - 0.01 in Rain Light Rain
1:34 AM 73.4 °F - 69.8 °F 88% 29.95 in 10.0 mi SSE 3.5 mph - 0.01 in Rain , Thunderstorm Light Thunderstorms and Rain
1:45 AM 73.4 °F - 69.8 °F 88% 29.97 in 10.0 mi SW 3.5 mph - 0.01 in Rain , Thunderstorm Light Rain
1:53 AM 73.0 °F - 69.1 °F 87% 29.96 in 9.0 mi West 5.8 mph - 0.02 in Rain , Thunderstorm Light Rain
2:53 AM 73.0 °F - 69.1 °F 87% 29.92 in 10.0 mi East 4.6 mph - 0.04 in Rain , Thunderstorm Light Thunderstorms and Rain
3:33 AM 73.4 °F - 69.8 °F 88% 29.90 in 1.8 mi NNE 11.5 mph - 0.21 in Rain , Thunderstorm Heavy Thunderstorms and Rain
3:43 AM 73.4 °F - 69.8 °F 88% 29.95 in 3.0 mi NW 16.1 mph 21.9 mph 0.26 in Rain , Thunderstorm Thunderstorms and Rain
3:45 AM 73.4 °F - 69.8 °F 88% 29.96 in 1.5 mi West 8.1 mph 23.0 mph 0.39 in Rain , Thunderstorm Thunderstorms and Rain
3:50 AM 73.4 °F - 66.2 °F 78% 30.00 in 0.8 mi SSW 10.4 mph 23.0 mph 0.49 in Rain , Thunderstorm Heavy Thunderstorms and Rain
3:53 AM 72.0 °F - 66.9 °F 84% 29.96 in 0.8 mi Variable 3.5 mph 23.0 mph 0.55 in Rain , Thunderstorm Heavy Thunderstorms and Rain
4:01 AM 71.6 °F - 68.0 °F 88% 29.96 in 1.5 mi East 4.6 mph - 0.08 in Rain , Thunderstorm Heavy Thunderstorms and Rain
4:05 AM 71.6 °F - 68.0 °F 88% 29.95 in 3.0 mi Variable 3.5 mph - 0.09 in Rain , Thunderstorm Heavy Thunderstorms and Rain
4:53 AM 71.1 °F - 69.1 °F 93% 29.94 in 3.0 mi NNE 5.8 mph - 0.29 in Rain , Thunderstorm Light Thunderstorms and Rain
5:45 AM 71.6 °F - 69.8 °F 94% 30.00 in 3.0 mi NNW 12.7 mph 18.4 mph 0.44 in Rain , Thunderstorm Thunderstorms and Rain
5:53 AM 72.0 °F - 69.1 °F 91% 29.97 in 9.0 mi NE 4.6 mph 18.4 mph 0.45 in Rain , Thunderstorm Light Rain
6:33 AM 71.6 °F - 69.8 °F 94% 29.99 in 6.0 mi Calm Calm - 0.01 in Rain Light Rain
6:41 AM 71.6 °F - 69.8 °F 94% 30.00 in 5.0 mi Calm Calm - 0.03 in Rain , Thunderstorm Light Rain
6:53 AM 72.0 °F - 70.0 °F 93% 29.99 in 10.0 mi SSE 4.6 mph - 0.03 in Rain , Thunderstorm Light Rain
7:29 AM 71.6 °F - 69.8 °F 94% 29.95 in 2.5 mi ESE 11.5 mph - 0.09 in Rain , Thunderstorm Rain
7:44 AM 71.6 °F - 69.8 °F 94% 29.97 in 8.0 mi SE 6.9 mph - 0.11 in Rain , Thunderstorm Light Thunderstorms and Rain
7:53 AM 71.1 °F - 69.1 °F 93% 29.96 in 2.0 mi SSE 4.6 mph - 0.16 in Rain , Thunderstorm Heavy Rain
7:57 AM 71.6 °F - 69.8 °F 94% 29.96 in 1.8 mi SE 9.2 mph - 0.02 in Rain Rain
8:02 AM 71.6 °F - 69.8 °F 94% 29.96 in 3.0 mi ESE 4.6 mph - 0.02 in Rain Light Rain
8:53 AM 72.0 °F - 69.1 °F 91% 29.93 in 10.0 mi North - - 0.04 in Rain Light Rain
9:53 AM 73.0 °F - 70.0 °F 90% 29.96 in 10.0 mi East 3.5 mph - 0.01 in Rain Light Rain
10:53 AM 72.0 °F - 70.0 °F 93% 29.89 in 7.0 mi East 8.1 mph - 0.02 in Rain Light Rain
11:03 AM 73.4 °F - 69.8 °F 88% 29.91 in 9.0 mi ESE 10.4 mph - 0.00 in Rain Light Rain
11:53 AM 73.9 °F - 70.0 °F 87% 29.89 in 10.0 mi ESE 5.8 mph - 0.00 in   Partly Cloudy
12:12 PM 73.4 °F - 69.8 °F 88% 29.92 in 6.0 mi East 6.9 mph - 0.02 in Rain , Thunderstorm Light Rain
12:34 PM 73.4 °F - 71.6 °F 94% 29.92 in 10.0 mi NE 5.8 mph - 0.02 in Rain Light Rain
12:53 PM 75.9 °F - 71.1 °F 85% 29.92 in 10.0 mi NE 9.2 mph - 0.02 in   Partly Cloudy
1:53 PM 75.9 °F - 71.1 °F 85% 29.90 in 10.0 mi East 8.1 mph - N/A   Clear
2:02 PM 77.0 °F - 71.6 °F 83% 29.92 in 10.0 mi East 9.2 mph - N/A   Partly Cloudy
2:53 PM 79.0 °F - 71.1 °F 77% 29.89 in 10.0 mi ENE 11.5 mph - N/A   Clear
3:53 PM 81.0 °F 85.2 °F 72.0 °F 74% 29.87 in 10.0 mi ENE 10.4 mph - N/A   Clear
4:25 PM 82.4 °F 86.3 °F 69.8 °F 66% 29.87 in 10.0 mi East 11.5 mph - N/A   Mostly Cloudy
4:53 PM 82.0 °F 86.3 °F 71.1 °F 69% 29.86 in 10.0 mi East 11.5 mph - N/A   Scattered Clouds
5:53 PM 82.0 °F 86.3 °F 71.1 °F 69% 29.85 in 10.0 mi East 9.2 mph - N/A   Clear
6:53 PM 81.0 °F 84.1 °F 69.1 °F 67% 29.83 in 10.0 mi ESE 12.7 mph 19.6 mph N/A   Clear
7:53 PM 79.0 °F - 69.1 °F 72% 29.80 in 10.0 mi SE 16.1 mph - N/A   Clear
8:53 PM 79.0 °F - 70.0 °F 74% 29.81 in 10.0 mi East 6.9 mph - 0.00 in   Clear
9:53 PM 78.1 °F - 70.0 °F 76% 29.80 in 10.0 mi ESE 10.4 mph - 0.00 in   Clear
10:53 PM 77.0 °F - 70.0 °F 79% 29.79 in 10.0 mi ESE 9.2 mph - N/A   Clear
11:53 PM 77.0 °F - 70.0 °F 79% 29.76 in 10.0 mi ESE 9.2 mph - N/A   Clear